Regional Weather Roundup
Issued by NWS

Home | Current Version | Previous Version | Text Only | Print | Product List | Glossary On
Versions: 1 2 3 4 5 6 7 8 9 10 11 12 13 14 15 16 17 18 19 20 21 22 23 24 25 26 27 28 29 30 31 32 33 34 35 36 37 38 39 40 41 42 43 44 45 46 47 48 49 50
000
ASUS43 KMKX 050421
RWRWI

WISCONSIN REGIONAL WEATHER ROUNDUP
NATIONAL WEATHER SERVICE MILWAUKEE/SULLIVAN WI
1100 PM CDT WED MAY 04 2016

NOTE: "FAIR" INDICATES FEW OR NO CLOUDS BELOW 12,000 FEET WITH NO
SIGNIFICANT WEATHER AND/OR OBSTRUCTIONS TO VISIBILITY.

WIZ001-002-006>008-014>016-023>028-050500-
NORTHWEST WISCONSIN

CITY           SKY/WX    TMP DP  RH WIND       PRES   REMARKS
SUPERIOR ARPT  PTCLDY    36  32  87 CALM      30.00F
ASHLAND        CLOUDY    34  31  88 CALM      30.01S
HAYWARD        PTCLDY    36  28  73 N5        30.00S WCI  32
SIREN          CLEAR     39  27  60 CALM      30.00R
CUMBERLAND     PTCLDY    45  27  49 CALM      30.00R
RICE LAKE      PTCLDY    45  32  60 CALM      30.01S
CHETEK         PTCLDY    48  29  48 CALM      30.00S
LADYSMITH      CLEAR     39  31  74 CALM      30.01S
EAU CLAIRE     CLEAR     46  25  43 NE6       29.99R
MENOMONIE      CLEAR     47  22  37 NE5       29.99S
NEW RICHMOND   CLEAR     44  30  57 CALM      29.99S
OSCEOLA        CLEAR     44  31  60 CALM      30.01S
$$

WIZ003>005-009-010-017-018-050500-
NORTH CENTRAL WISCONSIN

CITY           SKY/WX    TMP DP  RH WIND       PRES   REMARKS
MANITOWISH WTR CLEAR     32  32 100 CALM      29.99S
ARBOR VITAE    CLEAR     39  32  77 CALM      29.99R
WOODRUFF       CLEAR     39  32  77 CALM      29.99R
RHINELANDER    CLEAR     38  30  73 CALM      29.98S
EAGLE RIVER    CLEAR     30  29  93 CALM      29.97S
LAND O LAKES   CLEAR     30  29  96 CALM      29.99S
PHILLIPS       CLEAR     35  30  82 CALM      29.99S
TOMAHAWK       CLEAR     34  31  87 CALM      29.99R
MEDFORD        CLEAR     40  31  69 N3        29.98S
MERRILL        CLEAR     37  32  82 CALM      29.99R
$$

WIZ029-030-035-036-043>047-050500-
CENTRAL WISCONSIN

CITY           SKY/WX    TMP DP  RH WIND       PRES   REMARKS
WAUSAU         CLEAR     45  32  60 CALM      29.96R
MOSINEE        CLEAR     43  32  65 N3        29.99R
MARSHFIELD     CLEAR     47  31  53 N7        29.97R
STEVENS POINT  CLEAR     42  31  65 N3        29.98R
WAUPACA        CLEAR     46  33  61 N5        29.97R
WAUTOMA        CLEAR     46  32  58 N8        29.96R
WISC RAPIDS    CLEAR     43  30  60 N5        29.98R
CAMP DOUGLAS   CLEAR     45  35  68 N3        29.97R
$$

WIZ011>013-019>022-031-037>040-048>050-050500-
NORTHEAST WISCONSIN

CITY           SKY/WX    TMP DP  RH WIND       PRES   REMARKS
ANTIGO         CLEAR     36  32  87 CALM      29.97R
SHAWANO        CLEAR     43  33  67 N8        29.97S
OCONTO         CLEAR     38  32  80 N3        29.97S
STURGEON BAY   CLEAR     39  30  70 N14       29.97S WCI  31
GREEN BAY      CLEAR     41  32  70 N12       29.96S
MANITOWOC      CLEAR     41  32  70 NW9G18    29.95R
APPLETON       CLEAR     39  30  70 N9        29.94R WCI  33
CLINTONVILLE   CLEAR     41  32  70 NE5       29.97S
OSHKOSH        CLEAR     44  32  62 N16G24    29.95R
$$

WIZ032>034-041-042-053>061-050500-
SOUTHWEST WISCONSIN

CITY           SKY/WX    TMP DP  RH WIND       PRES   REMARKS
LA CROSSE      CLEAR     52  25  35 NE8       29.97R
SPARTA         CLEAR     43  30  60 NE3       29.98S
VIROQUA        CLEAR     46  30  53 NE9       29.96R
BOSCOBEL       CLEAR     49  27  42 NE5       29.95R
PRAIRIE DU CHI CLEAR     49  25  39 NE5       29.95S
PLATTEVILLE    CLEAR     46  32  59 N9        29.93S
$$

WIZ056-057-062-063-064-067-068-050500-
SOUTH CENTRAL WISCONSIN

CITY           SKY/WX    TMP DP  RH WIND       PRES   REMARKS
REEDSBURG      CLEAR     47  33  57 N7        29.95R
BARABOO/DELLS  CLEAR     47  31  54 N7        29.95R
LONE ROCK      CLEAR     51  32  48 N8        29.95R
MINERAL POINT  CLEAR     50  32  50 N9        29.94R
MADISON        PTCLDY    44  36  73 NE7       29.93R
MIDDLETON      CLEAR     49  34  56 N9        29.93S
WATERTOWN      CLEAR     43  35  73 NE5       29.92S
MONROE         CLEAR     46  34  61 N9        29.91S
JANESVILLE     CLEAR     43  37  81 CALM      29.92R
$$

WIZ051-052-058>065-066-070>072-050500-
SOUTHEAST WISCONSIN

CITY           SKY/WX    TMP DP  RH WIND       PRES   REMARKS
MILWAUKEE      PTCLDY    40  34  79 N16       29.92R WCI  31
WAUKESHA       CLEAR     36  32  87 N3        29.93S
MILWAUKEE/TIMM CLEAR     37  32  81 N7        29.93S WCI  32
RACINE         MOCLDY    41  34  76 N15G25    29.92S
BURLINGTON     CLEAR     38  33  83 NE5       29.92S WCI  34
KENOSHA        PTCLDY    40  34  79 N12       29.90S WCI  33
FOND DU LAC    CLEAR     44  34  67 NE16G24   29.95R
SHEBOYGAN      CLEAR     41  33  73 N9        29.93S
WEST BEND      CLEAR     37  34  87 N6        29.93S WCI  33
JUNEAU         CLEAR     41  34  75 N8        29.94R
$$

LSZ147-162-050500-
LAKE SUPERIOR

STATION/POSITION TIME  TEMP    WIND        PRES    WAVE
                       AIR SEA DIR/SP/G            HT/PER
                 (UTC) (F)     (DEG/KT/KT) (MB)    (FT/S)
W MID LAKE BUOY  0350   36 36   50/  2/  2 1017.1F   1/ 5
DEVILS ISLAND    0400   41     130/  6/  6 1016.9F
PORT WING        0230   39      CALM  /  3 1016.3
SAXON HARBOR     0340   35     190/  3/  5 1015.9R
$$

LMZ867-665-643>646-050500-
LAKE MICHIGAN

STATION/POSITION TIME  TEMP    WIND        PRES    WAVE
                       AIR SEA DIR/SP/G            HT/PER
                 (UTC) (F)     (DEG/KT/KT) (MB)    (FT/S)
CHAMBERS ISLAND  0300   41     330/ 16/ 17 1014.6S
N MID LAKE BUOY  0350   39 38  330/ 14/ 17 1013.4S   3/ 4
NORTHPORT PIER   0321   40     340/ 17/ 21 1014.2R
ALGOMA LAKESHORE 0300          360/ 17/ 24   N/A
KEWAUNEE LAKESHO 0400   40     350/ 11/ 14 1013.4S
SHEBOYGAN LAKESH 0400   43      10/ 23/ 26 1014.1F
PORT WASHINGTON  0340   41     340/  4/  8 1014.2S
S MID LAKE BUOY  0350   40 40   10/ 25/ 33 1010.3R   9/ 7
KENOSHA   LAKESH 0400   43     360/ 26/ 30 1012.2S
$$

TC  - TEMPERATURE IN CELSIUS
VSB - VISIBILITY IN STATUTE MILES
WCI - WIND CHILL INDEX
HX  - HEAT INDEX





USA.gov is the U.S. government's official web portal to all federal, state and local government web resources and services.